Location: Ch�ze
(42.9000°N, 0.0333°W)
Time: 22:42:06
(UTC+00:00)

Okean O Rocket - Pass Details

Date: 24 January 2021
Orbit: 622 x 645 km, 98.2° (Epoch: 24 February)

Event Time Altitude Azimuth Distance (km) Brightness Sun altitude
Rises 17:58:15 0° 178° (S) 2,939 5.2 -10.3°
Reaches altitude 10° 18:00:30 10° 184° (S) 2,032 4.5 -10.7°
Maximum altitude 18:04:49 51° 260° (W) 813 2.7 -11.5°
Drops below altitude 10° 18:09:08 10° 336° (NNW) 2,036 4.3 -12.2°
Sets 18:11:24 0° 342° (NNW) 2,945 5.1 -12.6°
